Powrót do katalogu

DELTA 1 DEB *

AktywnyLEO
NORAD 6213·DEBRIS·🇺🇸 United States

Wystrzelony Oct 2, 1966 z Vandenberg Space Force Base

Loading…

Następne Przeloty (najbliższe 24 godziny)

TLE

ŚwieżeSource: Space-Track

Epoka: Sep 14, 2026, 07:42 UTC

1 06213U 66087E   26257.32086900  .00001867  00000-0  43431-2 0  9998
2 06213 101.7708 290.6429 0044685  43.0158  22.2310 13.26023856808167

Śledź DELTA 1 DEB * w czasie rzeczywistym z AllMySat

Download on the App Store